Location: Gwatt
(46.7204°N, 7.6223°E)
Time: 17:31:58
(UTC+00:00)

Cosmos 1536 Rocket - Pass Details

Date: 18 September 2020
Orbit: 606 x 632 km, 82.5° (Epoch: 29 October)

Event Time Altitude Azimuth Distance (km) Brightness Sun altitude
Rises 18:32:00 0° 359° (N) 2,915 7.2 -10.6°
Reaches altitude 10° 18:34:28 10° 11° (N) 2,008 6.2 -11.0°
Maximum altitude 18:38:24 30° 73° (ENE) 1,129 4.4 -11.6°
Enters shadow 18:41:17 16° 126° (SE) 1,658 5.2 -12.1°
